This demonstration page uses our WeatherBlox Daily Observations layout. Learn more.

Left ArrowRight Arrow

Hourly Observations for April 11, 2018

Temp ( °F °C ) Dew Point ( °F °C ) Humidity (%) Winds ( mph kmh ) Pressure ( in mb ) Visibility ( mi km ) Precip ( " mm )
12:53 am 00:53 Clear 49 9.4 31 -0.6 50 50 S 7 11 29.93 1014 10 16 0.00 0.00
1:53 am 01:53 Clear 49 9.4 32 0 52 52 S 8 13 29.90 1013 10 16 0.00 0.00
2:53 am 02:53 Clear 48 8.9 33 0.6 56 56 S 6 9 29.87 1012 10 16 0.00 0.00
3:53 am 03:53 Clear 47 8.3 34 1.1 61 61 S 5 7 29.85 1011 10 16 0.00 0.00
4:53 am 04:53 Clear 46 7.8 33 0.6 61 61 S 7 11 29.83 1010 10 16 0.00 0.00
5:53 am 05:53 Clear 46 7.8 33 0.6 61 61 SSW 6 9 29.80 1009 10 16 0.00 0.00
6:53 am 06:53 Clear 46 7.8 34 1.1 63 63 SSW 7 11 29.78 1009 10 16 0.00 0.00
7:53 am 07:53 Sunny 47 8.3 34 1.1 61 61 SSW 7 11 29.78 1009 10 16 0.00 0.00
8:53 am 08:53 Sunny 50 10 35 1.7 57 57 SW 9 15 29.78 1008 10 16 0.00 0.00
9:53 am 09:53 Sunny 57 13.9 35 1.7 44 44 SW 10 17 29.75 1007 10 16 0.00 0.00
10:53 am 10:53 Sunny 64 17.8 35 1.7 34 34 SSW 8 13 29.73 1007 10 16 0.00 0.00
11:53 am 11:53 Sunny 67 19.4 36 2.2 32 32 SW 8 13 29.73 1007 10 16 0.00 0.00
12:53 pm 12:53 Mostly Sunny 69 20.6 37 2.8 31 31 WSW 6 9 29.72 1006 10 16 0.00 0.00
1:53 pm 13:53 Sunny 73 22.8 34 1.1 24 24 NW 5 7 29.68 1005 10 16 0.00 0.00
2:53 pm 14:53 Sunny 73 22.8 38 3.3 28 28 S 7 11 29.65 1004 10 16 0.00 0.00
3:53 pm 15:53 Sunny 76 24.4 36 2.2 23 23 SSW 10 17 29.63 1004 10 16 0.00 0.00
4:53 pm 16:53 Sunny 73 22.8 39 3.9 29 29 S 12 19 29.63 1003 10 16 0.00 0.00
5:53 pm 17:53 Sunny 75 23.9 40 4.4 28 28 S 13 20 29.60 1003 10 16 0.00 0.00
6:53 pm 18:53 Sunny 74 23.3 40 4.4 29 29 SSW 12 19 29.60 1002 10 16 0.00 0.00
7:53 pm 19:53 Sunny 70 21.1 41 5 35 35 SSW 10 17 29.59 1002 10 16 0.00 0.00
8:53 pm 20:53 Clear 66 18.9 41 5 40 40 S 9 15 29.59 1002 10 16 0.00 0.00
9:53 pm 21:53 Clear 64 17.8 40 4.4 41 41 SSW 10 17 29.60 1002 10 16 0.00 0.00
10:53 pm 22:53 Clear 54 12.2 40 4.4 59 59 WNW 12 19 29.65 1004 10 16 0.00 0.00
11:53 pm 23:53 Clear 57 13.9 40 4.4 53 53 NNW 13 20 29.65 1004 10 16 0.00 0.00

Powered by AerisWeather